Regional Weather Roundup
Issued by NWS

Home | Current Version | Previous Version | Graphics & Text | Print | Product List | Glossary On
Versions: 1 2 3 4 5 6 7 8 9 10 11 12 13 14 15 16 17 18 19 20 21 22 23 24 25 26 27 28 29 30 31 32 33 34 35 36 37 38 39 40 41 42 43 44 45 46 47 48 49 50
000
ASUS43 KFSD 210902
RWRSD

WEATHER ROUNDUP FOR SOUTH DAKOTA
NATIONAL WEATHER SERVICE SIOUX FALLS SD
300 AM CST SUN DEC 21 2014

NOTE: "FAIR" INDICATES FEW OR NO CLOUDS BELOW 12,000 FEET WITH NO
SIGNIFICANT WEATHER AND/OR OBSTRUCTIONS TO VISIBILITY.


SDZ001>005-009-010-012>017-211000-
NORTHWEST AND NORTH CENTRAL SOUTH DAKOTA

CITY           SKY/WX    TMP DP  RH WIND       PRES   REMARKS
BUFFALO          N/A     29  22  75 S7        29.61F WCI  22
FAITH            N/A     32  24  72 S13       29.70F WCI  22
MOBRIDGE       MOCLDY    26  23  88 SE7       29.72F WCI  18
$$

SDZ012>016-024>037-041>051-057-063-072>074-211000-
SOUTHWEST AND SOUTH CENTRAL SOUTH DAKOTA

CITY           SKY/WX    TMP DP  RH WIND       PRES   REMARKS
RAPID CTY ARPT CLEAR     28  22  78 CALM      29.69F
PIERRE         CLOUDY    24  22  91 E5        29.77F WCI  18
CUSTER         CLEAR     27  23  85 W6        29.70F WCI  20
ELLSWORTH AFB  CLEAR     24  20  84 W8        29.68F WCI  15
PHILIP         PTCLDY    27  23  85 NE3       29.73F
PINE RIDGE     CLEAR     31  23  72 SW3       29.75F
WINNER         CLOUDY    36  26  67 SE5       29.79F
$$

SDZ004>011-016>023-039-040-211000-
NORTHEAST SOUTH DAKOTA

CITY           SKY/WX    TMP DP  RH WIND       PRES   REMARKS
ABERDEEN       CLOUDY    30  28  92 S13       29.82F FOG     WCI  20
WATERTOWN      CLOUDY    29  28  96 S10       29.83F FOG     WCI  20
SISSETON         N/A     30  29  96 S12       29.84F WCI  20
$$

SDZ017-020-022-023-036>040-048>070-211000-
SOUTHEAST SOUTH DAKOTA

CITY           SKY/WX    TMP DP  RH WIND       PRES   REMARKS
SIOUX FALLS    FOG       31  30  96 S8        29.88F VSB 1/2 WCI  23
HURON          CLOUDY    31  30  96 S9        29.84S FOG     WCI  23
MITCHELL       CLOUDY    32  31  96 S15       29.84F FOG     WCI  22
YANKTON        CLOUDY    32  30  93 S8        29.89F WCI  25
$$

ABBREVIATIONS USED IN REMARKS
   TC - TEMPERATURE IN CELSIUS
  WCI - WIND CHILL INDEX
   HX - HEAT INDEX
  VSB - VISIBILITY



USA.gov is the U.S. government's official web portal to all federal, state and local government web resources and services.